Regional Weather Roundup
Issued by NWS

Home | Current Version | Previous Version | Text Only | Print | Product List | Glossary On
Versions: 1 2 3 4 5 6 7 8 9 10 11 12 13 14 15 16 17 18 19 20 21 22 23 24 25 26 27 28 29 30 31 32 33 34 35 36 37 38 39 40 41 42 43 44 45 46 47 48 49 50
000
ASUS43 KTOP 220208
RWRKS

WEATHER ROUNDUP FOR KANSAS
NATIONAL WEATHER SERVICE GOODLAND KS
900 PM CDT SUN SEP 21 2014

NOTE:  "FAIR" INDICATES FEW OR NO CLOUDS BELOW 12,000 FEET WITH NO
SIGNIFICANT WEATHER AND/OR OBSTRUCTIONS TO VISIBILITY.

KSZ001>006-013>018-027>032-041>047-220300-
NORTHWEST KANSAS

CITY           SKY/WX    TMP DP  RH WIND       PRES   REMARKS
GOODLAND       PTCLDY    61  44  53 SE7       30.32R
HAYS           CLEAR     63  39  42 NE8       30.27R
HILL CITY      CLEAR     61  42  49 E3        30.28R
RUSSELL        CLEAR     62  43  49 NE6       30.25R
$$

KSZ061>065-074>080-084>089-220300-
SOUTHWEST KANSAS

CITY           SKY/WX    TMP DP  RH WIND       PRES   REMARKS
DODGE CITY     PTCLDY    66  42  41 E8        30.27R
ELKHART          N/A     66  45  46 E9          N/A
GARDEN CITY    MOCLDY    67  42  40 NE9       30.27R
GREAT BEND     CLEAR     64  48  55 CALM      30.26R
LIBERAL        CLEAR     73  43  33 E9        30.27R
PRATT          PTCLDY    64  37  36 NE5       30.26R
$$

KSZ066>073-081>083-090>101-220300-
SOUTHEAST KANSAS

CITY           SKY/WX    TMP DP  RH WIND       PRES   REMARKS
CHANUTE        CLEAR     64  50  60 N5        30.20R
HUTCHINSON     CLEAR     58  49  72 N5        30.24R
MEDICINE LODGE   N/A     69  43  38 NE7       30.23R
NEWTON         CLEAR     63  45  51 N6        30.25R
PARSONS        CLEAR     63  52  67 N5        30.20R
WICHITA INTL   PTCLDY    71  42  35 N6        30.21R
WICHITA JABRA  CLEAR     67  42  40 N6        30.22R
WICHITA MCCONL CLEAR     67  41  39 N6        30.22R
WINFIELD       CLEAR     67  48  50 NE6       30.21R
$$

KSZ007>012-019>026-033>040-048>060-102>105-220300-
NORTHEAST KANSAS

CITY           SKY/WX    TMP DP  RH WIND       PRES   REMARKS
CONCORDIA      CLEAR     62  47  57 NE3       30.25R
EMPORIA        CLEAR     62  50  64 NE7       30.22R
LAWRENCE       CLEAR     54  49  83 NW7       30.22R
MANHATTAN      CLEAR     60  47  61 CALM      30.23R
MARYSVILLE     CLEAR     59  46  63 NE5       30.25R
OLATHE IND     CLEAR     58  50  75 N8        30.22R
OLATHE EXE     CLEAR     65  48  54 N5        30.20R
SALINA         CLEAR     69  44  40 NE6       30.24R
TOPEKA BILLARD CLEAR     62  51  67 NW3       30.23R
TOPEKA FORBES  CLEAR     63  48  58 N5        30.22R
$$


USA.gov is the U.S. government's official web portal to all federal, state and local government web resources and services.